{"data":{"norad_id":63690,"epoch":"2026-05-25T03:55:49.514592Z","epoch_age_seconds":58110,"freshness":"FRESH","line1":"1 63690U 25086D   26145.16376753  .00000032  00000+0  40473-4 0  9997","line2":"2 63690  86.5068 320.9882 0001434  82.2983 277.8314 13.24407764 51810","mean_motion":13.24407764,"eccentricity":0.0001434,"inclination_deg":86.5068,"raan_deg":320.9882,"arg_perigee_deg":82.2983,"mean_anomaly_deg":277.8314,"bstar":4.0473e-5,"rev_number":5181,"period_min":108.72784342874,"perigee_km":1166.8485728694,"apogee_km":1169.0127850797,"semimajor_km":7546.0676789745,"source":"CELESTRAK","updated_at":"2026-05-25T13:38:03.890634Z"}}